Flag for Morocco Weather past 2 weeks in Tangier, Morocco

Now
66 °F

Clear.


Feels Like: 66 °F
Forecast: 67 / 84 °F
Wind: 1 mph from North

Location: Tanger Aerodrome

Current Time: Aug 20, 2014 at 10:05:26 PM

Latest Report: Aug 20, 2014 at 9:30 PM


Visibility: 10 mi

Pressure: 30.01 "Hg

Humidity: 78%

Dew point: 59 °F

Location of TangierLocation

Historic Weather in Tangier — Graph

°F

Tangier temperature yesterday

Maximum temperature yesterday: 77 °F (at 12:30 PM)
Minimum temperature yesterday: 68 °F (at 6:30 AM)
Average temperature yesterday: 72 °F

Past Weeks' High & Low Weather Summary

 TemperatureHumidityPressure
High91 °F (Aug 16, 3:00 PM)94% (Aug 12, 7:30 AM)30.09 "Hg (Aug 12, 7:30 AM)
Low61 °F (Aug 7, 4:00 AM)30% (Aug 12, 5:00 PM)29.74 "Hg (Aug 17, 7:30 PM)
Average74 °F69%29.97 "Hg
* Reported Aug 5 9:00 PM — Aug 20 9:00 PM, Tangier, Weather by CustomWeather, © 2014

Note: Actual official high and low records may vary slightly from our data, if they occured in-between our weather recording intervals... More about our weather records

Advertising

Tangier weather history for previous 24 hours

 ConditionsComfort  
Time TempWeatherWind HumidityBarometerVisibility
9:00 PM
Aug 20
70 °FClear.No wind78%30.01 "Hg10 mi
8:30 PM70 °FClear.3 mph73%30.01 "Hg10 mi
8:00 PM72 °FSunny.6 mph73%30.01 "Hg10 mi
7:30 PM73 °FSunny.8 mph61%30.01 "Hg10 mi
7:00 PM75 °FSunny.9 mph54%30.01 "Hg10 mi
6:30 PM79 °FSunny.8 mph48%30.01 "Hg10 mi
6:00 PM77 °FPassing clouds.9 mph57%30.01 "HgN/A
5:30 PM77 °FPassing clouds.9 mph57%30.01 "HgN/A
5:00 PM77 °FSunny.10 mph61%30.01 "Hg10 mi
4:30 PM79 °FPassing clouds.10 mph58%30.01 "HgN/A
4:00 PM81 °FPassing clouds.10 mph51%30.01 "HgN/A
3:30 PM81 °FPassing clouds.9 mph54%30.04 "HgN/A
3:00 PM77 °FPassing clouds.9 mph61%30.04 "HgN/A
2:30 PM77 °FPassing clouds.10 mph61%30.04 "HgN/A
2:00 PM77 °FPassing clouds.10 mph61%30.07 "HgN/A
1:30 PM77 °FPassing clouds.12 mph61%30.07 "HgN/A
1:00 PM75 °FPassing clouds.12 mph65%30.07 "HgN/A
12:30 PM75 °FPassing clouds.12 mph61%30.07 "HgN/A
12:00 PM75 °FPassing clouds.10 mph65%30.07 "HgN/A
11:30 AM75 °FPassing clouds.9 mph61%30.07 "HgN/A
11:00 AM75 °FPassing clouds.9 mph61%30.07 "HgN/A
10:30 AM73 °FPassing clouds.8 mph65%30.07 "HgN/A
10:00 AM73 °FPassing clouds.8 mph65%30.07 "HgN/A
9:30 AM72 °FPassing clouds.8 mph69%30.07 "HgN/A
9:00 AM70 °FPassing clouds.7 mph73%30.07 "HgN/A
8:30 AM68 °FPassing clouds.7 mph73%30.07 "HgN/A
8:00 AM66 °FPassing clouds.7 mph78%30.07 "HgN/A
7:30 AM64 °FPassing clouds.6 mph83%30.07 "Hg5 mi
7:00 AM64 °FPassing clouds.7 mph83%30.04 "Hg5 mi
6:30 AM64 °FPassing clouds.8 mph83%30.04 "Hg5 mi
6:00 AM64 °FPassing clouds.7 mph83%30.04 "Hg5 mi
5:30 AM64 °FPassing clouds.8 mph83%30.04 "Hg5 mi
5:00 AM64 °FPassing clouds.7 mph78%30.04 "Hg5 mi
4:30 AM68 °FPassing clouds.12 mph73%30.04 "Hg5 mi
3:00 AM68 °FPassing clouds.8 mph73%30.07 "Hg5 mi
2:30 AM68 °FPassing clouds.7 mph73%30.07 "Hg5 mi
2:00 AM68 °FPassing clouds.9 mph73%30.07 "Hg5 mi
1:00 AM70 °FPassing clouds.8 mph73%30.07 "Hg5 mi
12:30 AM70 °FPassing clouds.8 mph73%30.07 "Hg5 mi
12:00 AM70 °FPassing clouds.9 mph69%30.07 "Hg5 mi
11:30 PM
Aug 19
70 °FPassing clouds.10 mph69%30.07 "Hg5 mi
11:00 PM70 °FPassing clouds.10 mph69%30.09 "Hg5 mi
10:00 PM70 °FPassing clouds.12 mph69%30.07 "Hg5 mi
Weather by CustomWeather, © 2014

See weather overviewHow to use our weather pages